INSAT-3C

Last updated on Mon Sep 04 2017 00:18:17 GMT+0000 (Coordinated Universal Time)

1 27298U 02002A 17246.44024059 -.00000225 00000-0 00000+0 0 9999 2 27298 0.7896 91.4833 0011754 74.0465 278.6035 0.99302213 57183
UTC large
Height (km)
Speed (km/s)
/
Latitude / Longitude
Inclination (degrees)
Orbital Period (minutes)
Azimuth
Elevation
Range (km)
Doppler Factor

Next 0 passes for location: London (51.5072 / 0.1276)

Sorry there are no passes over London.